Orbital elements of COSMOS 839 DEB
| Launched | 7 July 1976 |
| Flight ended | – |
| Launch site | Plesetsk Missile and Space Complex, Russia |
| Owner | Commonwealth of Independent States (former USSR) |
| NORAD ID | 10622 |
| Date fetched |
Epoch osculation |
Inc. [°] |
Ecc. | RA asc node [hr] |
Arg Peri. [°] |
Mean anom [°] |
Mean motion [rev/day] |
Abs. mag |
| Date fetched |
Epoch osculation |
Inc. [°] |
Ecc. | RA asc node [hr] |
Arg Peri. [°] |
Mean anom [°] |
Mean motion [rev/day] |
Abs. mag |
| 2026 May 05 17:57 | 2026 May 05 13:36:46 | 65.9056 | 0.07398 | 21.3734 | 144.1357 | 253.7047 | 12.33734 | – |
| 2026 May 04 17:57 | 2026 Apr 30 15:08:56 | 65.9061 | 0.07400 | 22.0098 | 146.1074 | 253.7047 | 12.33734 | – |
| 2026 May 03 17:57 | 2026 Apr 30 15:08:56 | 65.9061 | 0.07400 | 22.0098 | 146.1074 | 253.7047 | 12.33734 | – |
| 2026 May 02 17:57 | 2026 Apr 30 15:08:56 | 65.9061 | 0.07400 | 22.0098 | 146.1074 | 253.7047 | 12.33734 | – |
| 2026 May 01 17:56 | 2026 Apr 30 15:08:56 | 65.9061 | 0.07400 | 22.0098 | 146.1074 | 253.7047 | 12.33734 | – |
| 2026 Apr 30 17:56 | 2026 Apr 30 15:08:56 | 65.9061 | 0.07400 | 22.0098 | 146.1074 | 253.7047 | 12.33734 | – |
| 2026 Apr 29 17:57 | 2026 Apr 24 05:34:16 | 65.9068 | 0.07403 | 22.8349 | 148.6649 | 253.7047 | 12.33734 | – |
| 2026 Apr 28 17:56 | 2026 Apr 24 05:34:16 | 65.9068 | 0.07403 | 22.8349 | 148.6649 | 253.7047 | 12.33734 | – |
| 2026 Apr 27 17:58 | 2026 Apr 24 05:34:16 | 65.9068 | 0.07403 | 22.8349 | 148.6649 | 253.7047 | 12.33734 | – |
| 2026 Apr 26 17:58 | 2026 Apr 24 05:34:16 | 65.9068 | 0.07403 | 22.8349 | 148.6649 | 253.7047 | 12.33734 | – |
| 2026 Apr 25 17:58 | 2026 Apr 24 05:34:16 | 65.9068 | 0.07403 | 22.8349 | 148.6649 | 253.7047 | 12.33734 | – |
| 2026 Apr 24 17:59 | 2026 Apr 24 05:34:16 | 65.9068 | 0.07403 | 22.8349 | 148.6649 | 253.7047 | 12.33734 | – |
| 2026 Apr 23 17:57 | 2026 Apr 19 03:20:50 | 65.9076 | 0.07405 | 23.4916 | 150.6990 | 253.7047 | 12.33734 | – |
| 2026 Apr 22 17:57 | 2026 Apr 19 03:20:50 | 65.9076 | 0.07405 | 23.4916 | 150.6990 | 253.7047 | 12.33734 | – |
| 2026 Apr 21 17:57 | 2026 Apr 19 03:20:50 | 65.9076 | 0.07405 | 23.4916 | 150.6990 | 253.7047 | 12.33734 | – |
| 2026 Apr 20 17:57 | 2026 Apr 19 03:20:50 | 65.9076 | 0.07405 | 23.4916 | 150.6990 | 253.7047 | 12.33734 | – |
| 2026 Apr 19 17:58 | 2026 Apr 19 03:20:50 | 65.9076 | 0.07405 | 23.4916 | 150.6990 | 253.7047 | 12.33734 | – |
| 2026 Apr 18 17:56 | 2026 Apr 13 03:18:44 | 65.9081 | 0.07408 | 0.2653 | 153.0963 | 253.7047 | 12.33734 | – |
| 2026 Apr 16 17:57 | 2026 Apr 13 03:18:44 | 65.9081 | 0.07408 | 0.2653 | 153.0963 | 253.7047 | 12.33734 | – |
| 2026 Apr 14 17:57 | 2026 Apr 13 03:18:44 | 65.9081 | 0.07408 | 0.2653 | 153.0963 | 253.7047 | 12.33734 | – |
| 2026 Apr 13 17:57 | 2026 Apr 13 03:18:44 | 65.9081 | 0.07408 | 0.2653 | 153.0963 | 253.7047 | 12.33734 | – |
| 2026 Apr 12 17:57 | 2026 Apr 08 12:34:32 | 65.9081 | 0.07411 | 0.8602 | 154.9385 | 253.7047 | 12.33734 | – |
| 2026 Apr 11 17:57 | 2026 Apr 08 12:34:32 | 65.9081 | 0.07411 | 0.8602 | 154.9385 | 253.7047 | 12.33734 | – |
| 2026 Apr 10 17:58 | 2026 Apr 08 12:34:32 | 65.9081 | 0.07411 | 0.8602 | 154.9385 | 253.7047 | 12.33734 | – |
| 2026 Apr 09 18:01 | 2026 Apr 08 12:34:32 | 65.9081 | 0.07411 | 0.8602 | 154.9385 | 253.7047 | 12.33734 | – |
| 2026 Apr 08 17:57 | 2026 Apr 08 12:34:32 | 65.9081 | 0.07411 | 0.8602 | 154.9385 | 253.7047 | 12.33734 | – |